User: anonymous
Location: Unspecified
(0.0000°N, 0.0000°E)
Time: 08:19:01
(UTC+00:00)
Language:

GEOEYE 1 - Orbit

View from above orbital plane
View from above orbital plane
View from above satellite
View from above satellite

Ground track
Ground track

The orbit data is extracted from the following two-line orbital elements,

1 33331U 08042A   14205.69547010 -.00000026  00000-0  41286-5 0  5127
2 33331 098.1316 280.1323 0008944 359.3258 000.7934 14.64189008314206
Epoch (UTC): 24 July 2014 16:41:28
Eccentricity: 0.0008944
inclination: 98.1316°
perigee height: 673 km
apogee height: 686 km
right ascension of ascending node: 280.1323°
argument of perigee: 359.3258°
revolutions per day: 14.64189008
mean anomaly at epoch: 0.7934°
orbit number at epoch: 31420

The dashed part of the orbit path shows where the satellite is in the earth's shadow,  

DLR